Time,TemperatureF,DewpointF,PressureIn,WindDirection,WindDirectionDegrees,WindSpeedMPH,WindSpeedGustMPH,Humidity,HourlyPrecipIn,Conditions,Clouds,dailyrainin,SoftwareType,DateUTC
2013-07-10 00:01:00,68.4,66.6,30.00,SSE,168,0.0,0.0,94,0.00,,,0.01,VWS V14.01,2013-07-10 04:01:00,
2013-07-10 00:06:00,68.2,66.4,29.99,SSE,168,0.0,0.0,94,0.00,,,0.00,VWS V14.01,2013-07-10 04:06:00,
2013-07-10 00:11:00,68.0,66.2,29.99,WSW,245,0.0,2.0,94,0.00,,,0.00,VWS V14.01,2013-07-10 04:11:00,
2013-07-10 00:16:00,67.9,66.1,29.99,WSW,245,0.0,1.0,94,0.00,,,0.00,VWS V14.01,2013-07-10 04:16:00,
2013-07-10 00:21:00,67.8,66.0,29.99,South,180,0.0,1.0,94,0.00,,,0.00,VWS V14.01,2013-07-10 04:21:00,
2013-07-10 00:26:00,67.8,66.0,29.99,South,180,0.0,0.0,94,0.00,,,0.00,VWS V14.01,2013-07-10 04:26:00,
2013-07-10 00:31:00,67.8,66.3,29.99,South,180,0.0,1.0,95,0.00,,,0.00,VWS V14.01,2013-07-10 04:31:00,
2013-07-10 00:36:00,67.7,66.2,29.99,South,180,1.0,1.0,95,0.00,,,0.00,VWS V14.01,2013-07-10 04:36:00,
2013-07-10 00:41:00,67.8,66.3,29.99,South,180,1.0,1.0,95,0.00,,,0.00,VWS V14.01,2013-07-10 04:41:00,
2013-07-10 00:46:00,67.9,66.1,29.99,WNW,290,0.0,3.0,94,0.00,,,0.00,VWS V14.01,2013-07-10 04:46:00,
2013-07-10 00:51:00,67.9,66.4,29.98,WNW,295,0.0,3.0,95,0.00,,,0.00,VWS V14.01,2013-07-10 04:51:00,
2013-07-10 00:56:00,68.0,66.5,29.98,South,186,0.0,0.0,95,0.00,,,0.00,VWS V14.01,2013-07-10 04:56:00,
2013-07-10 01:01:00,68.1,66.6,29.98,SSW,203,0.0,8.0,95,0.00,,,0.00,VWS V14.01,2013-07-10 05:01:00,
2013-07-10 01:06:00,68.3,66.5,29.98,SW,223,0.0,1.0,94,0.00,,,0.00,VWS V14.01,2013-07-10 05:06:00,
2013-07-10 01:11:00,68.3,66.5,29.98,SSW,212,0.0,1.0,94,0.00,,,0.00,VWS V14.01,2013-07-10 05:11:00,
2013-07-10 01:16:00,68.3,66.5,29.98,SSW,195,0.0,6.0,94,0.00,,,0.00,VWS V14.01,2013-07-10 05:16:00,
2013-07-10 01:21:00,68.3,66.5,29.98,SW,215,0.0,6.0,94,0.00,,,0.00,VWS V14.01,2013-07-10 05:21:00,
2013-07-10 01:26:00,68.3,66.5,29.98,WSW,242,0.0,0.0,94,0.00,,,0.00,VWS V14.01,2013-07-10 05:26:00,
2013-07-10 01:31:00,68.3,66.5,29.98,SSW,192,1.0,4.0,94,0.00,,,0.00,VWS V14.01,2013-07-10 05:31:00,
2013-07-10 01:36:00,68.3,66.5,29.98,WSW,242,0.0,0.0,94,0.00,,,0.00,VWS V14.01,2013-07-10 05:36:00,
2013-07-10 01:41:00,68.2,66.4,29.97,WSW,256,0.0,7.0,94,0.00,,,0.00,VWS V14.01,2013-07-10 05:41:00,
2013-07-10 01:46:00,68.3,66.5,29.97,SW,227,1.0,4.0,94,0.00,,,0.00,VWS V14.01,2013-07-10 05:46:00,
2013-07-10 01:51:00,68.3,66.5,29.97,SSW,213,1.0,5.0,94,0.00,,,0.00,VWS V14.01,2013-07-10 05:51:00,
2013-07-10 01:56:00,68.3,66.5,29.97,South,185,0.0,4.0,94,0.00,,,0.00,VWS V14.01,2013-07-10 05:56:00,
2013-07-10 02:01:00,68.3,66.5,29.97,SW,231,0.0,6.0,94,0.00,,,0.00,VWS V14.01,2013-07-10 06:01:00,
2013-07-10 02:06:00,68.3,66.5,29.97,SSW,211,0.0,4.0,94,0.00,,,0.00,VWS V14.01,2013-07-10 06:06:00,
2013-07-10 02:11:00,68.2,66.4,29.97,WSW,243,1.0,7.0,94,0.00,,,0.00,VWS V14.01,2013-07-10 06:11:00,
2013-07-10 02:16:00,68.1,66.3,29.96,WSW,242,0.0,3.0,94,0.00,,,0.00,VWS V14.01,2013-07-10 06:16:00,
2013-07-10 02:21:00,68.1,66.6,29.96,South,172,0.0,6.0,95,0.00,,,0.00,VWS V14.01,2013-07-10 06:21:00,
2013-07-10 02:26:00,68.1,66.6,29.95,SW,227,0.0,0.0,95,0.00,,,0.00,VWS V14.01,2013-07-10 06:26:00,
2013-07-10 02:31:00,68.0,66.2,29.95,WSW,239,0.0,3.0,94,0.00,,,0.00,VWS V14.01,2013-07-10 06:31:00,
2013-07-10 02:36:00,67.9,66.4,29.95,WSW,242,0.0,0.0,95,0.00,,,0.00,VWS V14.01,2013-07-10 06:36:00,
2013-07-10 02:41:00,67.8,66.3,29.95,East,97,0.0,6.0,95,0.00,,,0.00,VWS V14.01,2013-07-10 06:41:00,
2013-07-10 02:46:00,67.7,66.2,29.94,NW,312,0.0,0.0,95,0.00,,,0.00,VWS V14.01,2013-07-10 06:46:00,
2013-07-10 02:51:00,67.7,66.2,29.95,West,266,0.0,9.0,95,0.00,,,0.00,VWS V14.01,2013-07-10 06:51:00,
2013-07-10 02:56:00,67.7,66.2,29.94,WNW,294,0.0,2.0,95,0.00,,,0.00,VWS V14.01,2013-07-10 06:56:00,
2013-07-10 03:01:00,67.6,66.1,29.94,West,273,0.0,2.0,95,0.00,,,0.00,VWS V14.01,2013-07-10 07:01:00,
2013-07-10 03:06:00,67.7,66.2,29.94,West,278,0.0,0.0,95,0.00,,,0.00,VWS V14.01,2013-07-10 07:06:00,
2013-07-10 03:10:00,67.7,66.2,29.94,WSW,242,0.0,6.0,95,0.00,,,0.00,VWS V14.01,2013-07-10 07:10:00,
2013-07-10 03:15:00,67.7,66.2,29.94,WSW,256,0.0,0.0,95,0.00,,,0.00,VWS V14.01,2013-07-10 07:15:00,
2013-07-10 03:20:00,67.7,66.2,29.94,West,267,0.0,5.0,95,0.00,,,0.00,VWS V14.01,2013-07-10 07:20:00,
2013-07-10 03:25:00,67.7,66.2,29.94,WNW,287,0.0,0.0,95,0.00,,,0.00,VWS V14.01,2013-07-10 07:25:00,
2013-07-10 03:30:00,67.7,66.2,29.94,NW,314,0.0,4.0,95,0.00,,,0.00,VWS V14.01,2013-07-10 07:30:00,
2013-07-10 03:35:00,67.7,66.2,29.94,WNW,285,0.0,0.0,95,0.00,,,0.00,VWS V14.01,2013-07-10 07:35:00,
2013-07-10 03:40:00,67.7,66.2,29.94,NNW,330,0.0,3.0,95,0.00,,,0.00,VWS V14.01,2013-07-10 07:40:00,
2013-07-10 03:45:00,67.7,66.2,29.94,SW,223,3.0,4.0,95,0.00,,,0.00,VWS V14.01,2013-07-10 07:45:00,
2013-07-10 03:50:00,67.7,66.2,29.94,WNW,297,0.0,5.0,95,0.00,,,0.00,VWS V14.01,2013-07-10 07:50:00,
2013-07-10 03:55:00,67.7,66.2,29.93,SSW,211,0.0,0.0,95,0.00,,,0.00,VWS V14.01,2013-07-10 07:55:00,
2013-07-10 04:00:00,67.7,66.2,29.93,SW,214,0.0,0.0,95,0.00,,,0.00,VWS V14.01,2013-07-10 08:00:00,
2013-07-10 04:05:00,67.7,66.2,29.93,West,266,0.0,0.0,95,0.00,,,0.00,VWS V14.01,2013-07-10 08:05:00,
2013-07-10 04:10:00,67.7,66.2,29.92,NNW,329,4.0,6.0,95,0.00,,,0.00,VWS V14.01,2013-07-10 08:10:00,
2013-07-10 04:15:00,67.6,66.1,29.92,NW,317,0.0,1.0,95,0.00,,,0.00,VWS V14.01,2013-07-10 08:15:00,
2013-07-10 04:20:00,67.5,66.0,29.92,South,185,0.0,5.0,95,0.00,,,0.00,VWS V14.01,2013-07-10 08:20:00,
2013-07-10 04:25:00,67.5,66.0,29.92,NW,317,0.0,0.0,95,0.00,,,0.00,VWS V14.01,2013-07-10 08:25:00,
2013-07-10 04:30:00,67.5,66.0,29.92,NNW,345,0.0,3.0,95,0.00,,,0.00,VWS V14.01,2013-07-10 08:30:00,
2013-07-10 04:35:00,67.5,66.0,29.92,East,90,0.0,2.0,95,0.00,,,0.00,VWS V14.01,2013-07-10 08:35:00,
2013-07-10 04:40:00,67.5,66.0,29.93,West,280,0.0,4.0,95,0.00,,,0.00,VWS V14.01,2013-07-10 08:40:00,
2013-07-10 04:45:00,67.5,66.0,29.93,WNW,292,0.0,1.0,95,0.00,,,0.00,VWS V14.01,2013-07-10 08:45:00,
2013-07-10 04:50:00,67.5,66.0,29.93,SSE,153,0.0,4.0,95,0.00,,,0.00,VWS V14.01,2013-07-10 08:50:00,
2013-07-10 04:55:00,67.5,66.0,29.93,NW,317,0.0,4.0,95,0.00,,,0.00,VWS V14.01,2013-07-10 08:55:00,
2013-07-10 05:00:00,67.5,66.0,29.93,South,179,0.0,6.0,95,0.00,,,0.00,VWS V14.01,2013-07-10 09:00:00,
2013-07-10 05:05:00,67.5,66.0,29.93,South,178,0.0,0.0,95,0.00,,,0.00,VWS V14.01,2013-07-10 09:05:00,
2013-07-10 05:10:00,67.5,66.3,29.93,WNW,283,0.0,4.0,96,0.00,,,0.00,VWS V14.01,2013-07-10 09:10:00,
2013-07-10 05:15:00,67.5,66.0,29.93,WSW,239,0.0,1.0,95,0.00,,,0.00,VWS V14.01,2013-07-10 09:15:00,
2013-07-10 05:20:00,67.5,66.3,29.93,West,265,0.0,5.0,96,0.00,,,0.00,VWS V14.01,2013-07-10 09:20:00,
2013-07-10 05:25:00,67.5,66.3,29.93,WSW,252,0.0,1.0,96,0.00,,,0.00,VWS V14.01,2013-07-10 09:25:00,
2013-07-10 05:30:00,67.5,66.0,29.93,NNW,340,0.0,6.0,95,0.00,,,0.00,VWS V14.01,2013-07-10 09:30:00,
2013-07-10 05:35:00,67.6,66.1,29.93,SSW,200,1.0,3.0,95,0.00,,,0.00,VWS V14.01,2013-07-10 09:35:00,
2013-07-10 05:40:00,67.5,66.3,29.93,East,80,0.0,3.0,96,0.00,,,0.00,VWS V14.01,2013-07-10 09:40:00,
2013-07-10 05:45:00,67.5,66.0,29.93,SSE,167,0.0,0.0,95,0.00,,,0.00,VWS V14.01,2013-07-10 09:45:00,
2013-07-10 05:50:00,67.5,66.0,29.92,SSW,211,0.0,9.0,95,0.00,,,0.00,VWS V14.01,2013-07-10 09:50:00,
2013-07-10 05:55:00,67.5,66.3,29.92,WNW,291,0.0,0.0,96,0.00,,,0.00,VWS V14.01,2013-07-10 09:55:00,
2013-07-10 06:00:00,67.5,66.3,29.92,NNW,328,0.0,2.0,96,0.00,,,0.00,VWS V14.01,2013-07-10 10:00:00,
2013-07-10 06:05:00,67.5,66.0,29.92,SW,235,0.0,0.0,95,0.00,,,0.00,VWS V14.01,2013-07-10 10:05:00,
2013-07-10 06:10:00,67.6,66.4,29.92,WNW,298,0.0,4.0,96,0.00,,,0.00,VWS V14.01,2013-07-10 10:10:00,
2013-07-10 06:15:00,67.6,66.4,29.92,NW,311,0.0,1.0,96,0.00,,,0.00,VWS V14.01,2013-07-10 10:15:00,
2013-07-10 06:20:00,67.7,66.2,29.92,SSW,192,3.0,7.0,95,0.00,,,0.00,VWS V14.01,2013-07-10 10:20:00,
2013-07-10 06:25:00,67.8,66.3,29.92,West,277,0.0,0.0,95,0.00,,,0.00,VWS V14.01,2013-07-10 10:25:00,
2013-07-10 06:30:00,67.9,66.4,29.92,SSE,151,0.0,1.0,95,0.00,,,0.00,VWS V14.01,2013-07-10 10:30:00,
2013-07-10 06:35:00,67.9,66.4,29.92,SSW,201,3.0,4.0,95,0.00,,,0.00,VWS V14.01,2013-07-10 10:35:00,
2013-07-10 06:40:00,68.0,66.5,29.92,South,171,0.0,5.0,95,0.00,,,0.00,VWS V14.01,2013-07-10 10:40:00,
2013-07-10 06:45:00,68.0,66.2,29.91,SW,218,0.0,5.0,94,0.00,,,0.00,VWS V14.01,2013-07-10 10:45:00,
2013-07-10 06:50:00,68.0,66.2,29.91,SW,221,0.0,7.0,94,0.00,,,0.00,VWS V14.01,2013-07-10 10:50:00,
2013-07-10 06:55:00,68.1,66.3,29.91,East,87,0.0,1.0,94,0.00,,,0.00,VWS V14.01,2013-07-10 10:55:00,
2013-07-10 07:00:00,68.2,66.4,29.91,WSW,248,0.0,5.0,94,0.00,,,0.00,VWS V14.01,2013-07-10 11:00:00,
2013-07-10 07:05:00,68.2,66.4,29.91,SW,227,0.0,4.0,94,0.00,,,0.00,VWS V14.01,2013-07-10 11:05:00,
2013-07-10 07:10:00,68.1,66.3,29.91,West,261,4.0,4.0,94,0.00,,,0.00,VWS V14.01,2013-07-10 11:10:00,
2013-07-10 07:15:00,68.0,66.2,29.91,West,263,3.0,4.0,94,0.00,,,0.00,VWS V14.01,2013-07-10 11:15:00,
2013-07-10 07:20:00,68.0,66.2,29.90,ENE,67,0.0,5.0,94,0.00,,,0.00,VWS V14.01,2013-07-10 11:20:00,
2013-07-10 07:25:00,67.9,66.1,29.90,SW,232,3.0,3.0,94,0.00,,,0.00,VWS V14.01,2013-07-10 11:25:00,
2013-07-10 07:30:00,68.0,66.5,29.90,SE,129,0.0,7.0,95,0.00,,,0.00,VWS V14.01,2013-07-10 11:30:00,
2013-07-10 07:35:00,68.0,66.5,29.90,WSW,252,0.0,1.0,95,0.00,,,0.00,VWS V14.01,2013-07-10 11:35:00,
2013-07-10 07:40:00,68.0,66.5,29.90,WSW,238,0.0,8.0,95,0.00,,,0.00,VWS V14.01,2013-07-10 11:40:00,
2013-07-10 07:45:00,68.0,66.2,29.90,SSW,194,4.0,5.0,94,0.00,,,0.00,VWS V14.01,2013-07-10 11:45:00,
2013-07-10 07:50:00,68.1,66.6,29.89,WSW,244,3.0,7.0,95,0.00,,,0.00,VWS V14.01,2013-07-10 11:50:00,
2013-07-10 07:55:00,68.2,66.7,29.89,SSE,160,0.0,0.0,95,0.00,,,0.00,VWS V14.01,2013-07-10 11:55:00,
2013-07-10 08:00:00,68.3,66.8,29.89,NE,51,0.0,9.0,95,0.00,,,0.00,VWS V14.01,2013-07-10 12:00:00,
2013-07-10 08:05:00,68.5,66.7,29.89,SW,225,5.0,6.0,94,0.00,,,0.00,VWS V14.01,2013-07-10 12:05:00,
2013-07-10 08:10:00,68.6,66.8,29.89,SSW,211,0.0,9.0,94,0.00,,,0.00,VWS V14.01,2013-07-10 12:10:00,
2013-07-10 08:15:00,68.6,66.8,29.89,SW,234,0.0,0.0,94,0.00,,,0.00,VWS V14.01,2013-07-10 12:15:00,
2013-07-10 08:20:00,68.6,66.5,29.89,WSW,250,0.0,7.0,93,0.00,,,0.00,VWS V14.01,2013-07-10 12:20:00,
2013-07-10 08:25:00,68.5,66.7,29.88,SSW,203,2.0,4.0,94,0.00,,,0.00,VWS V14.01,2013-07-10 12:25:00,
2013-07-10 08:30:00,68.6,66.8,29.88,SSW,199,2.0,7.0,94,0.00,,,0.00,VWS V14.01,2013-07-10 12:30:00,
2013-07-10 08:35:00,68.8,67.0,29.88,WSW,242,1.0,1.0,94,0.00,,,0.00,VWS V14.01,2013-07-10 12:35:00,
2013-07-10 08:40:00,68.8,66.7,29.88,NW,317,2.0,10.0,93,0.00,,,0.00,VWS V14.01,2013-07-10 12:40:00,
2013-07-10 08:45:00,68.8,66.7,29.88,SW,219,0.0,0.0,93,0.00,,,0.00,VWS V14.01,2013-07-10 12:45:00,
2013-07-10 08:50:00,69.0,66.9,29.88,WNW,298,0.0,5.0,93,0.00,,,0.00,VWS V14.01,2013-07-10 12:50:00,
2013-07-10 08:55:00,68.9,66.8,29.88,NW,313,0.0,0.0,93,0.00,,,0.00,VWS V14.01,2013-07-10 12:55:00,
2013-07-10 09:00:00,69.0,66.9,29.88,WNW,286,3.0,4.0,93,0.00,,,0.00,VWS V14.01,2013-07-10 13:00:00,
2013-07-10 09:05:00,68.7,66.6,29.89,WNW,290,0.0,0.0,93,0.00,,,0.00,VWS V14.01,2013-07-10 13:05:00,
2013-07-10 09:10:00,68.4,66.3,29.88,SSW,192,4.0,7.0,93,0.00,,,0.00,VWS V14.01,2013-07-10 13:10:00,
2013-07-10 09:15:00,68.4,66.6,29.88,West,266,1.0,5.0,94,0.00,,,0.00,VWS V14.01,2013-07-10 13:15:00,
2013-07-10 09:20:00,68.7,66.9,29.88,WNW,294,0.0,5.0,94,0.00,,,0.00,VWS V14.01,2013-07-10 13:20:00,
2013-07-10 09:25:00,69.1,67.0,29.88,WSW,243,1.0,1.0,93,0.00,,,0.00,VWS V14.01,2013-07-10 13:25:00,
2013-07-10 09:30:00,69.4,67.0,29.88,WNW,293,0.0,6.0,92,0.00,,,0.00,VWS V14.01,2013-07-10 13:30:00,
2013-07-10 09:35:00,69.7,67.3,29.87,NW,322,0.0,1.0,92,0.00,,,0.00,VWS V14.01,2013-07-10 13:35:00,
2013-07-10 09:40:00,70.1,67.7,29.87,WNW,301,0.0,6.0,92,0.00,,,0.00,VWS V14.01,2013-07-10 13:40:00,
2013-07-10 09:45:00,70.6,67.8,29.87,SSW,209,0.0,0.0,91,0.00,,,0.00,VWS V14.01,2013-07-10 13:45:00,
2013-07-10 09:50:00,71.1,68.0,29.87,West,277,0.0,6.0,90,0.00,,,0.00,VWS V14.01,2013-07-10 13:50:00,
2013-07-10 09:55:00,71.2,67.8,29.87,SSE,163,0.0,0.0,89,0.00,,,0.00,VWS V14.01,2013-07-10 13:55:00,
2013-07-10 10:00:00,71.3,67.9,29.87,WSW,253,0.0,2.0,89,0.00,,,0.00,VWS V14.01,2013-07-10 14:00:00,
2013-07-10 10:05:00,71.2,67.8,29.87,WNW,300,0.0,0.0,89,0.00,,,0.00,VWS V14.01,2013-07-10 14:05:00,
2013-07-10 10:10:00,71.2,67.8,29.87,South,188,0.0,5.0,89,0.00,,,0.00,VWS V14.01,2013-07-10 14:10:00,
2013-07-10 10:15:00,71.1,68.0,29.86,SSW,208,0.0,1.0,90,0.00,,,0.00,VWS V14.01,2013-07-10 14:15:00,
2013-07-10 10:20:00,70.8,67.4,29.86,WSW,248,3.0,5.0,89,0.00,,,0.00,VWS V14.01,2013-07-10 14:20:00,
2013-07-10 10:25:00,70.8,67.4,29.86,South,188,3.0,8.0,89,0.00,,,0.00,VWS V14.01,2013-07-10 14:25:00,
2013-07-10 10:30:00,70.9,67.8,29.86,NNW,334,0.0,8.0,90,0.00,,,0.00,VWS V14.01,2013-07-10 14:30:00,
2013-07-10 10:35:00,71.0,67.6,29.86,SSW,194,0.0,0.0,89,0.00,,,0.00,VWS V14.01,2013-07-10 14:35:00,
2013-07-10 10:40:00,71.2,67.8,29.85,ESE,109,5.0,8.0,89,0.00,,,0.00,VWS V14.01,2013-07-10 14:40:00,
2013-07-10 10:45:00,71.4,68.0,29.85,East,84,0.0,0.0,89,0.00,,,0.00,VWS V14.01,2013-07-10 14:45:00,
2013-07-10 10:50:00,71.7,68.0,29.86,South,191,0.0,8.0,88,0.00,,,0.00,VWS V14.01,2013-07-10 14:50:00,
2013-07-10 10:55:00,71.5,67.4,29.86,NW,309,0.0,0.0,87,0.00,,,0.00,VWS V14.01,2013-07-10 14:55:00,
2013-07-10 11:00:00,71.4,68.0,29.85,South,180,0.0,4.0,89,0.00,,,0.00,VWS V14.01,2013-07-10 15:00:00,
2013-07-10 11:05:00,71.2,68.1,29.86,East,85,0.0,0.0,90,0.00,,,0.00,VWS V14.01,2013-07-10 15:05:00,
2013-07-10 11:10:00,70.9,67.5,29.85,SW,221,0.0,6.0,89,0.00,,,0.00,VWS V14.01,2013-07-10 15:10:00,
2013-07-10 11:15:00,70.9,67.8,29.85,WSW,243,0.0,0.0,90,0.00,,,0.00,VWS V14.01,2013-07-10 15:15:00,
2013-07-10 11:20:00,70.9,67.5,29.85,WNW,286,0.0,4.0,89,0.00,,,0.00,VWS V14.01,2013-07-10 15:20:00,
2013-07-10 11:25:00,70.7,67.6,29.85,NW,319,0.0,0.0,90,0.00,,,0.00,VWS V14.01,2013-07-10 15:25:00,
2013-07-10 11:30:00,70.5,67.4,29.85,SSW,211,0.0,6.0,90,0.00,,,0.00,VWS V14.01,2013-07-10 15:30:00,
2013-07-10 11:35:00,70.4,67.3,29.85,South,176,0.0,0.0,90,0.00,,,0.00,VWS V14.01,2013-07-10 15:35:00,
2013-07-10 11:40:00,70.3,67.6,29.85,West,281,0.0,7.0,91,0.00,,,0.00,VWS V14.01,2013-07-10 15:40:00,
2013-07-10 11:45:00,70.2,67.4,29.84,SSW,202,0.0,0.0,91,0.00,,,0.00,VWS V14.01,2013-07-10 15:45:00,
2013-07-10 11:50:00,70.3,67.6,29.84,SW,230,0.0,5.0,91,0.00,,,0.00,VWS V14.01,2013-07-10 15:50:00,
2013-07-10 11:55:00,70.6,67.8,29.84,SE,133,0.0,1.0,91,0.00,,,0.00,VWS V14.01,2013-07-10 15:55:00,
2013-07-10 12:00:00,71.0,67.9,29.83,SSE,166,1.0,7.0,90,0.00,,,0.00,VWS V14.01,2013-07-10 16:00:00,
2013-07-10 12:05:00,71.8,68.4,29.83,SSE,163,1.0,1.0,89,0.00,,,0.00,VWS V14.01,2013-07-10 16:05:00,
2013-07-10 12:10:00,72.6,68.5,29.83,SSW,213,0.0,11.0,87,0.00,,,0.00,VWS V14.01,2013-07-10 16:10:00,
2013-07-10 12:15:00,73.0,68.9,29.83,WSW,250,0.0,0.0,87,0.00,,,0.00,VWS V14.01,2013-07-10 16:15:00,
2013-07-10 12:20:00,73.0,68.9,29.83,North,360,0.0,1.0,87,0.00,,,0.00,VWS V14.01,2013-07-10 16:20:00,
2013-07-10 12:25:00,73.2,69.1,29.82,NNW,332,0.0,0.0,87,0.00,,,0.00,VWS V14.01,2013-07-10 16:25:00,
2013-07-10 12:30:00,73.6,69.5,29.82,WSW,242,1.0,7.0,87,0.00,,,0.00,VWS V14.01,2013-07-10 16:30:00,
2013-07-10 12:35:00,74.1,70.0,29.82,West,272,0.0,0.0,87,0.00,,,0.00,VWS V14.01,2013-07-10 16:35:00,
2013-07-10 12:40:00,74.3,69.2,29.82,West,269,0.0,4.0,84,0.00,,,0.00,VWS V14.01,2013-07-10 16:40:00,
2013-07-10 12:45:00,74.5,70.4,29.82,West,263,0.0,0.0,87,0.00,,,0.00,VWS V14.01,2013-07-10 16:45:00,
2013-07-10 12:50:00,74.8,70.0,29.82,South,187,0.0,5.0,85,0.00,,,0.00,VWS V14.01,2013-07-10 16:50:00,
2013-07-10 12:55:00,75.0,70.2,29.82,NW,313,3.0,3.0,85,0.00,,,0.00,VWS V14.01,2013-07-10 16:55:00,
2013-07-10 13:00:00,74.6,69.4,29.81,North,11,0.0,5.0,84,0.00,,,0.00,VWS V14.01,2013-07-10 17:00:00,
2013-07-10 13:05:00,74.1,69.3,29.81,SSW,203,6.0,8.0,85,0.00,,,0.00,VWS V14.01,2013-07-10 17:05:00,
2013-07-10 13:10:00,73.6,69.2,29.81,WSW,246,1.0,6.0,86,0.00,,,0.00,VWS V14.01,2013-07-10 17:10:00,
2013-07-10 13:15:00,73.3,68.9,29.81,SSE,153,0.0,8.0,86,0.00,,,0.00,VWS V14.01,2013-07-10 17:15:00,
2013-07-10 13:20:00,73.1,68.7,29.81,WSW,252,0.0,6.0,86,0.00,,,0.00,VWS V14.01,2013-07-10 17:20:00,
2013-07-10 13:25:00,73.0,68.9,29.81,SSE,150,2.0,6.0,87,0.00,,,0.00,VWS V14.01,2013-07-10 17:25:00,
2013-07-10 13:30:00,72.8,68.7,29.80,East,80,0.0,8.0,87,0.00,,,0.00,VWS V14.01,2013-07-10 17:30:00,
2013-07-10 13:35:00,72.9,68.8,29.80,East,99,0.0,8.0,87,0.00,,,0.00,VWS V14.01,2013-07-10 17:35:00,
2013-07-10 13:40:00,73.0,69.2,29.80,SE,132,0.0,8.0,88,0.00,,,0.00,VWS V14.01,2013-07-10 17:40:00,
2013-07-10 13:45:00,73.0,68.9,29.79,West,279,4.0,12.0,87,0.00,,,0.00,VWS V14.01,2013-07-10 17:45:00,
2013-07-10 13:50:00,73.1,69.0,29.79,SSE,154,0.0,8.0,87,0.00,,,0.00,VWS V14.01,2013-07-10 17:50:00,
2013-07-10 13:55:00,73.3,69.2,29.79,ESE,117,0.0,8.0,87,0.00,,,0.00,VWS V14.01,2013-07-10 17:55:00,
2013-07-10 14:00:00,73.7,69.9,29.79,South,186,0.0,1.0,88,0.00,,,0.00,VWS V14.01,2013-07-10 18:00:00,
2013-07-10 14:05:00,73.9,70.1,29.79,WNW,291,6.0,6.0,88,0.00,,,0.00,VWS V14.01,2013-07-10 18:05:00,
2013-07-10 14:10:00,73.8,69.7,29.79,South,188,0.0,4.0,87,0.00,,,0.00,VWS V14.01,2013-07-10 18:10:00,
2013-07-10 14:15:00,73.6,69.8,29.79,NNW,330,1.0,5.0,88,0.00,,,0.00,VWS V14.01,2013-07-10 18:15:00,
2013-07-10 14:20:00,73.3,69.9,29.79,WSW,252,3.0,7.0,89,0.00,,,0.00,VWS V14.01,2013-07-10 18:20:00,
2013-07-10 14:25:00,73.2,70.4,29.79,ESE,117,0.0,7.0,91,0.00,,,0.00,VWS V14.01,2013-07-10 18:25:00,
2013-07-10 14:30:00,72.7,69.9,29.79,WSW,251,0.0,3.0,91,0.00,,,0.00,VWS V14.01,2013-07-10 18:30:00,
2013-07-10 14:35:00,72.3,69.8,29.79,West,272,0.0,5.0,92,0.00,,,0.00,VWS V14.01,2013-07-10 18:35:00,
2013-07-10 14:40:00,71.9,69.8,29.79,West,272,0.0,1.0,93,0.00,,,0.00,VWS V14.01,2013-07-10 18:40:00,
2013-07-10 14:45:00,71.7,69.9,29.79,West,272,0.0,1.0,94,0.00,,,0.00,VWS V14.01,2013-07-10 18:45:00,
2013-07-10 14:50:00,71.3,69.5,29.79,West,273,0.0,1.0,94,0.00,,,0.00,VWS V14.01,2013-07-10 18:50:00,
2013-07-10 14:55:00,71.1,69.6,29.79,SW,215,0.0,1.0,95,0.00,,,0.00,VWS V14.01,2013-07-10 18:55:00,
2013-07-10 15:00:00,71.0,69.5,29.78,SSW,204,0.0,1.0,95,0.00,,,0.00,VWS V14.01,2013-07-10 19:00:00,
2013-07-10 15:05:00,70.9,69.4,29.78,WSW,248,0.0,3.0,95,0.00,,,0.00,VWS V14.01,2013-07-10 19:05:00,
2013-07-10 15:10:00,70.8,69.3,29.77,SSE,157,0.0,1.0,95,0.00,,,0.00,VWS V14.01,2013-07-10 19:10:00,
2013-07-10 15:15:00,70.8,69.3,29.77,WSW,257,1.0,5.0,95,0.00,,,0.00,VWS V14.01,2013-07-10 19:15:00,
2013-07-10 15:20:00,70.7,69.2,29.77,SW,234,3.0,7.0,95,0.00,,,0.00,VWS V14.01,2013-07-10 19:20:00,
2013-07-10 15:25:00,70.7,69.5,29.76,SW,223,0.0,7.0,96,0.00,,,0.00,VWS V14.01,2013-07-10 19:25:00,
2013-07-10 15:30:00,70.8,69.6,29.76,WSW,248,0.0,1.0,96,0.00,,,0.00,VWS V14.01,2013-07-10 19:30:00,
2013-07-10 15:35:00,71.0,69.8,29.76,SW,229,0.0,3.0,96,0.00,,,0.00,VWS V14.01,2013-07-10 19:35:00,
2013-07-10 15:40:00,71.3,70.1,29.76,SW,229,0.0,0.0,96,0.00,,,0.00,VWS V14.01,2013-07-10 19:40:00,
2013-07-10 15:45:00,71.7,70.8,29.76,WSW,246,0.0,2.0,97,0.00,,,0.00,VWS V14.01,2013-07-10 19:45:00,
2013-07-10 15:50:00,72.1,70.9,29.76,SW,224,6.0,6.0,96,0.00,,,0.00,VWS V14.01,2013-07-10 19:50:00,
2013-07-10 15:55:00,72.3,71.1,29.75,WSW,245,2.0,6.0,96,0.00,,,0.00,VWS V14.01,2013-07-10 19:55:00,
2013-07-10 16:00:00,72.5,71.3,29.76,West,274,0.0,6.0,96,0.00,,,0.00,VWS V14.01,2013-07-10 20:00:00,
2013-07-10 16:05:00,72.8,71.6,29.76,SW,218,0.0,6.0,96,0.00,,,0.00,VWS V14.01,2013-07-10 20:05:00,
2013-07-10 16:10:00,72.6,70.8,29.76,SW,221,1.0,6.0,94,0.00,,,0.00,VWS V14.01,2013-07-10 20:10:00,
2013-07-10 16:15:00,72.6,70.8,29.76,WSW,239,0.0,6.0,94,0.00,,,0.00,VWS V14.01,2013-07-10 20:15:00,
2013-07-10 16:20:00,72.6,70.8,29.76,WSW,248,0.0,8.0,94,0.00,,,0.00,VWS V14.01,2013-07-10 20:20:00,
2013-07-10 16:25:00,72.5,70.4,29.76,SW,220,3.0,8.0,93,0.00,,,0.00,VWS V14.01,2013-07-10 20:25:00,
2013-07-10 16:30:00,72.1,70.3,29.75,SSW,203,0.0,7.0,94,0.00,,,0.00,VWS V14.01,2013-07-10 20:30:00,
2013-07-10 16:35:00,71.7,69.9,29.75,SW,214,0.0,7.0,94,0.00,,,0.00,VWS V14.01,2013-07-10 20:35:00,
2013-07-10 16:40:00,71.4,69.6,29.75,SW,221,3.0,5.0,94,0.00,,,0.00,VWS V14.01,2013-07-10 20:40:00,
2013-07-10 16:45:00,71.2,69.7,29.75,SW,218,1.0,5.0,95,0.00,,,0.00,VWS V14.01,2013-07-10 20:45:00,
2013-07-10 16:50:00,71.2,69.7,29.75,SW,223,5.0,6.0,95,0.00,,,0.00,VWS V14.01,2013-07-10 20:50:00,
2013-07-10 16:55:00,71.2,69.7,29.75,SW,228,0.0,8.0,95,0.00,,,0.00,VWS V14.01,2013-07-10 20:55:00,
2013-07-10 17:00:00,71.4,69.9,29.75,SW,215,0.0,5.0,95,0.00,,,0.00,VWS V14.01,2013-07-10 21:00:00,
2013-07-10 17:05:00,71.6,70.1,29.75,WSW,241,0.0,5.0,95,0.00,,,0.00,VWS V14.01,2013-07-10 21:05:00,
2013-07-10 17:10:00,71.7,70.2,29.75,WSW,240,1.0,2.0,95,0.00,,,0.00,VWS V14.01,2013-07-10 21:10:00,
2013-07-10 17:15:00,71.9,70.1,29.75,SW,227,0.0,4.0,94,0.00,,,0.00,VWS V14.01,2013-07-10 21:15:00,
2013-07-10 17:20:00,72.2,70.4,29.74,SW,231,2.0,5.0,94,0.00,,,0.00,VWS V14.01,2013-07-10 21:20:00,
2013-07-10 17:25:00,72.7,70.6,29.74,WSW,240,0.0,7.0,93,0.00,,,0.00,VWS V14.01,2013-07-10 21:25:00,
2013-07-10 17:30:00,73.2,70.7,29.73,West,280,0.0,9.0,92,0.00,,,0.00,VWS V14.01,2013-07-10 21:30:00,
2013-07-10 17:35:00,73.6,70.5,29.74,SW,233,0.0,9.0,90,0.00,,,0.00,VWS V14.01,2013-07-10 21:35:00,
2013-07-10 17:40:00,74.2,70.4,29.73,NNE,15,4.0,4.0,88,0.00,,,0.00,VWS V14.01,2013-07-10 21:40:00,
2013-07-10 17:45:00,74.9,71.8,29.73,North,11,0.0,4.0,90,0.00,,,0.00,VWS V14.01,2013-07-10 21:45:00,
2013-07-10 17:50:00,74.9,71.8,29.72,East,89,4.0,6.0,90,0.00,,,0.00,VWS V14.01,2013-07-10 21:50:00,
2013-07-10 17:55:00,74.7,70.9,29.73,ESE,103,0.0,6.0,88,0.00,,,0.00,VWS V14.01,2013-07-10 21:55:00,
2013-07-10 18:00:00,74.7,70.9,29.73,SSE,158,0.0,2.0,88,0.00,,,0.00,VWS V14.01,2013-07-10 22:00:00,
2013-07-10 18:05:00,74.4,70.9,29.73,East,96,0.0,2.0,89,0.00,,,0.00,VWS V14.01,2013-07-10 22:05:00,
2013-07-10 18:10:00,74.0,70.9,29.72,SE,146,1.0,5.0,90,0.00,,,0.00,VWS V14.01,2013-07-10 22:10:00,
2013-07-10 18:15:00,73.8,70.4,29.73,SE,137,0.0,5.0,89,0.00,,,0.00,VWS V14.01,2013-07-10 22:15:00,
2013-07-10 18:20:00,73.9,70.8,29.73,SE,137,0.0,1.0,90,0.00,,,0.00,VWS V14.01,2013-07-10 22:20:00,
2013-07-10 18:25:00,73.7,70.6,29.73,SW,217,0.0,1.0,90,0.00,,,0.00,VWS V14.01,2013-07-10 22:25:00,
2013-07-10 18:30:00,73.7,70.9,29.73,SW,217,0.0,0.0,91,0.00,,,0.00,VWS V14.01,2013-07-10 22:30:00,
2013-07-10 18:35:00,73.5,70.7,29.73,SW,220,0.0,1.0,91,0.00,,,0.00,VWS V14.01,2013-07-10 22:35:00,
2013-07-10 18:40:00,73.3,70.8,29.73,SW,220,0.0,1.0,92,0.00,,,0.00,VWS V14.01,2013-07-10 22:40:00,
2013-07-10 18:45:00,73.0,70.5,29.74,SSW,200,0.0,3.0,92,0.00,,,0.00,VWS V14.01,2013-07-10 22:45:00,
2013-07-10 18:50:00,73.3,70.5,29.74,SW,220,0.0,1.0,91,0.00,,,0.00,VWS V14.01,2013-07-10 22:50:00,
2013-07-10 18:55:00,73.9,70.8,29.74,WSW,244,0.0,8.0,90,0.00,,,0.00,VWS V14.01,2013-07-10 22:55:00,
2013-07-10 19:00:00,74.6,70.8,29.74,NNE,18,3.0,3.0,88,0.00,,,0.00,VWS V14.01,2013-07-10 23:00:00,
2013-07-10 19:05:00,75.0,70.9,29.74,South,187,0.0,3.0,87,0.00,,,0.00,VWS V14.01,2013-07-10 23:05:00,
2013-07-10 19:10:00,75.5,71.0,29.74,WNW,297,0.0,7.0,86,0.00,,,0.00,VWS V14.01,2013-07-10 23:10:00,
2013-07-10 19:15:00,75.5,70.7,29.74,SW,218,1.0,7.0,85,0.00,,,0.00,VWS V14.01,2013-07-10 23:15:00,
2013-07-10 19:20:00,75.2,70.4,29.74,WSW,248,2.0,10.0,85,0.00,,,0.00,VWS V14.01,2013-07-10 23:20:00,
2013-07-10 19:25:00,74.6,70.1,29.74,WNW,294,0.0,10.0,86,0.00,,,0.00,VWS V14.01,2013-07-10 23:25:00,
2013-07-10 19:30:00,74.5,70.4,29.74,SSW,213,0.0,7.0,87,0.00,,,0.00,VWS V14.01,2013-07-10 23:30:00,
2013-07-10 19:35:00,74.2,70.1,29.74,SW,229,1.0,7.0,87,0.00,,,0.00,VWS V14.01,2013-07-10 23:35:00,
2013-07-10 19:40:00,74.0,70.2,29.73,SW,225,3.0,6.0,88,0.00,,,0.00,VWS V14.01,2013-07-10 23:40:00,
2013-07-10 19:45:00,73.7,69.9,29.73,SW,219,3.0,6.0,88,0.00,,,0.00,VWS V14.01,2013-07-10 23:45:00,
2013-07-10 19:50:00,73.5,70.1,29.73,SW,230,0.0,6.0,89,0.00,,,0.00,VWS V14.01,2013-07-10 23:50:00,
2013-07-10 19:55:00,73.5,69.7,29.73,WSW,257,5.0,8.0,88,0.00,,,0.00,VWS V14.01,2013-07-10 23:55:00,
2013-07-10 20:00:00,73.5,70.1,29.73,SW,234,1.0,6.0,89,0.00,,,0.00,VWS V14.01,2013-07-11 00:00:00,
2013-07-10 20:05:00,73.2,69.8,29.73,WSW,238,0.0,6.0,89,0.00,,,0.00,VWS V14.01,2013-07-11 00:05:00,
2013-07-10 20:10:00,73.1,69.7,29.73,SW,215,0.0,6.0,89,0.00,,,0.00,VWS V14.01,2013-07-11 00:10:00,
2013-07-10 20:15:00,73.2,69.8,29.73,SW,221,4.0,6.0,89,0.00,,,0.00,VWS V14.01,2013-07-11 00:15:00,
2013-07-10 20:20:00,73.0,69.6,29.73,South,175,1.0,5.0,89,0.00,,,0.00,VWS V14.01,2013-07-11 00:20:00,
2013-07-10 20:25:00,73.2,69.4,29.73,SSW,208,3.0,5.0,88,0.00,,,0.00,VWS V14.01,2013-07-11 00:25:00,
2013-07-10 20:30:00,73.3,69.5,29.73,SSW,198,3.0,5.0,88,0.00,,,0.00,VWS V14.01,2013-07-11 00:30:00,
2013-07-10 20:35:00,73.5,69.7,29.73,SSW,212,4.0,8.0,88,0.00,,,0.00,VWS V14.01,2013-07-11 00:35:00,
2013-07-10 20:40:00,73.5,69.7,29.72,South,184,6.0,7.0,88,0.00,,,0.00,VWS V14.01,2013-07-11 00:40:00,
2013-07-10 20:45:00,73.5,69.4,29.73,SW,226,0.0,9.0,87,0.00,,,0.00,VWS V14.01,2013-07-11 00:45:00,
2013-07-10 20:50:00,73.5,69.7,29.73,SW,236,5.0,6.0,88,0.00,,,0.00,VWS V14.01,2013-07-11 00:50:00,
2013-07-10 20:55:00,73.4,69.6,29.73,SSW,211,6.0,7.0,88,0.00,,,0.00,VWS V14.01,2013-07-11 00:55:00,
2013-07-10 21:00:00,73.3,69.5,29.73,SW,215,4.0,8.0,88,0.00,,,0.00,VWS V14.01,2013-07-11 01:00:00,
2013-07-10 21:05:00,73.1,69.3,29.73,SW,216,2.0,9.0,88,0.00,,,0.00,VWS V14.01,2013-07-11 01:05:00,
2013-07-10 21:10:00,73.1,69.3,29.74,SW,221,4.0,6.0,88,0.00,,,0.00,VWS V14.01,2013-07-11 01:10:00,
2013-07-10 21:15:00,73.2,69.4,29.74,SSW,211,2.0,6.0,88,0.00,,,0.00,VWS V14.01,2013-07-11 01:15:00,
2013-07-10 21:19:00,73.6,69.5,29.74,SW,217,3.0,8.0,87,0.00,,,0.00,VWS V14.01,2013-07-11 01:19:00,
2013-07-10 21:24:00,73.8,69.7,29.74,SW,230,1.0,8.0,87,0.00,,,0.00,VWS V14.01,2013-07-11 01:24:00,
2013-07-10 21:29:00,73.8,69.7,29.74,SW,214,6.0,8.0,87,0.00,,,0.00,VWS V14.01,2013-07-11 01:29:00,
2013-07-10 21:34:00,73.6,69.5,29.74,SSE,167,0.0,8.0,87,0.00,,,0.00,VWS V14.01,2013-07-11 01:34:00,
2013-07-10 21:39:00,73.5,69.4,29.74,SW,214,5.0,7.0,87,0.00,,,0.00,VWS V14.01,2013-07-11 01:39:00,
2013-07-10 21:44:00,73.6,69.5,29.74,SW,234,4.0,7.0,87,0.00,,,0.00,VWS V14.01,2013-07-11 01:44:00,
2013-07-10 21:50:00,73.5,69.4,29.75,SSW,205,1.0,6.0,87,0.00,,,0.00,VWS V14.01,2013-07-11 01:50:00,
2013-07-10 21:55:00,73.5,69.7,29.75,SSW,198,3.0,7.0,88,0.00,,,0.00,VWS V14.01,2013-07-11 01:55:00,
2013-07-10 22:00:00,73.4,69.6,29.75,SW,220,1.0,8.0,88,0.00,,,0.00,VWS V14.01,2013-07-11 02:00:00,
2013-07-10 22:04:00,73.4,69.6,29.75,SW,217,0.0,8.0,88,0.00,,,0.00,VWS V14.01,2013-07-11 02:04:00,
2013-07-10 22:10:00,73.3,69.5,29.75,SSW,204,1.0,5.0,88,0.00,,,0.00,VWS V14.01,2013-07-11 02:10:00,
2013-07-10 22:14:00,73.3,69.5,29.75,SW,221,0.0,5.0,88,0.00,,,0.00,VWS V14.01,2013-07-11 02:14:00,
2013-07-10 22:19:00,73.3,69.5,29.75,SSE,156,1.0,5.0,88,0.00,,,0.00,VWS V14.01,2013-07-11 02:19:00,
2013-07-10 22:24:00,73.3,69.5,29.75,SW,222,7.0,7.0,88,0.00,,,0.00,VWS V14.01,2013-07-11 02:24:00,
2013-07-10 22:29:00,73.4,69.6,29.75,SE,145,0.0,7.0,88,0.00,,,0.00,VWS V14.01,2013-07-11 02:29:00,
2013-07-10 22:34:00,73.2,69.4,29.74,SW,233,0.0,7.0,88,0.00,,,0.00,VWS V14.01,2013-07-11 02:34:00,
2013-07-10 22:35:00,73.2,69.4,29.74,SW,233,1.0,7.0,88,0.00,,,0.00,VWS V14.01,2013-07-11 02:35:00,
2013-07-10 22:40:00,73.0,69.6,29.74,West,273,6.0,6.0,89,0.00,,,0.00,VWS V14.01,2013-07-11 02:40:00,
2013-07-10 22:45:00,73.0,69.6,29.74,SW,229,2.0,2.0,89,0.00,,,0.00,VWS V14.01,2013-07-11 02:45:00,
2013-07-10 22:50:00,73.0,69.6,29.75,SW,228,3.0,8.0,89,0.00,,,0.00,VWS V14.01,2013-07-11 02:50:00,
2013-07-10 22:55:00,73.1,69.3,29.74,WSW,244,2.0,2.0,88,0.00,,,0.00,VWS V14.01,2013-07-11 02:55:00,
2013-07-10 23:00:00,73.1,69.3,29.75,SSW,208,1.0,6.0,88,0.00,,,0.00,VWS V14.01,2013-07-11 03:00:00,
2013-07-10 23:05:00,73.2,69.4,29.74,South,181,0.0,0.0,88,0.00,,,0.00,VWS V14.01,2013-07-11 03:05:00,
2013-07-10 23:10:00,73.3,69.5,29.74,ENE,71,0.0,5.0,88,0.00,,,0.00,VWS V14.01,2013-07-11 03:10:00,
2013-07-10 23:15:00,73.2,69.4,29.74,ESE,111,0.0,0.0,88,0.00,,,0.00,VWS V14.01,2013-07-11 03:15:00,
2013-07-10 23:20:00,73.3,69.5,29.74,SSE,164,0.0,7.0,88,0.00,,,0.00,VWS V14.01,2013-07-11 03:20:00,
2013-07-10 23:25:00,73.3,69.5,29.74,SW,219,0.0,7.0,88,0.00,,,0.00,VWS V14.01,2013-07-11 03:25:00,
2013-07-10 23:30:00,73.1,69.3,29.74,SW,219,0.0,0.0,88,0.00,,,0.00,VWS V14.01,2013-07-11 03:30:00,
2013-07-10 23:35:00,72.9,69.5,29.74,SE,130,0.0,1.0,89,0.00,,,0.00,VWS V14.01,2013-07-11 03:35:00,
2013-07-10 23:40:00,72.7,69.3,29.73,SSE,165,0.0,5.0,89,0.00,,,0.00,VWS V14.01,2013-07-11 03:40:00,
2013-07-10 23:45:00,72.5,69.1,29.74,SSW,200,0.0,5.0,89,0.00,,,0.00,VWS V14.01,2013-07-11 03:45:00,
2013-07-10 23:50:00,72.4,69.3,29.74,SW,236,0.0,1.0,90,0.00,,,0.00,VWS V14.01,2013-07-11 03:50:00,
2013-07-10 23:55:00,72.3,69.2,29.73,SE,124,0.0,6.0,90,0.00,,,0.00,VWS V14.01,2013-07-11 03:55:00,